{"data":{"norad_id":50177,"epoch":"2026-09-20T02:44:38.298624Z","epoch_age_seconds":78546,"freshness":"FRESH","line1":"1 50177U 21125X   26263.11433216 -.00001792  00000+0 -41916-4 0  9996","line2":"2 50177  53.1596  79.5252 0001258  84.2319 275.8827 15.34394183266187","mean_motion":15.34394183,"eccentricity":0.0001258,"inclination_deg":53.1596,"raan_deg":79.5252,"arg_perigee_deg":84.2319,"mean_anomaly_deg":275.8827,"bstar":-4.1916e-5,"rev_number":26618,"period_min":93.848113865015,"perigee_km":461.85994973438,"apogee_km":463.58110948883,"semimajor_km":6840.8575296116,"source":"CELESTRAK","updated_at":"2026-09-20T09:00:39.416287Z"}}